Time[GMT],air_temperature[C](-3m),wind_speed[m/s](-4m),wind_gust[m/s](-4m),visibility[m](-3m),wind_direction[degrees_true](-4m)
2002-03-09 00:00,4.9,5.0,6.9,2908,103.90
2002-03-09 01:00,4.9,4.9,6.5,2888,134.50
2002-03-09 02:00,4.9,5.6,7.1,2764,156.20
2002-03-09 03:00,4.9,2.3,3.5,1563,174.50
2002-03-09 04:00,4.8,2.9,4.3, 661,158.90
2002-03-09 05:00,4.9,3.5,4.9, 348,144.90
2002-03-09 06:00,4.9,2.7,3.9, 716,182.00
2002-03-09 07:00,4.7,2.6,3.3, 495,168.60
2002-03-09 08:00,4.7,3.0,4.1, 237,161.10
2002-03-09 09:00,4.7,3.8,4.9, 307,155.20
2002-03-09 10:00,4.7,2.2,3.3, 357,136.10
2002-03-09 11:00,4.7,2.7,3.5, 496,130.30
2002-03-09 12:00,4.8,3.1,3.9,1073,147.00
2002-03-09 13:00,4.9,3.6,4.5, 779,156.00
2002-03-09 14:00,5.0,4.0,5.1, 301,151.10
2002-03-09 15:00,5.0,4.0,5.3, 208,166.20
2002-03-09 16:00,5.1,3.4,4.3, 123,165.90
2002-03-09 17:00,5.1,2.9,3.7, 225,146.00
2002-03-09 18:00,4.9,2.5,3.7, 112,98.20
2002-03-09 19:00,6.1,4.2,5.1,2959,89.50
2002-03-09 20:00,8.2,4.3,5.5,2959,194.20
2002-03-09 21:00,9.1,7.3,8.8,2959,173.90
2002-03-09 22:00,8.6,6.9,9.0,2959,160.50
2002-03-09 23:00,7.7,6.9,8.8,2959,154.50
2002-03-10 00:00,8.0,7.4,9.4,2959,162.00
2002-03-10 01:00,7.2,7.2,9.0,2959,158.50
2002-03-10 02:00,7.1,7.8,9.8,2844,164.90
2002-03-10 03:00,7.3,9.2,12.0,2897,168.50
2002-03-10 04:00,7.4,8.7,11.8,2816,172.40
2002-03-10 05:00,8.3,10.1,12.9,2772,174.10
2002-03-10 06:00,8.2,9.9,13.3,2734,166.60
2002-03-10 07:00,8.1,9.9,13.3,2378,150.20
2002-03-10 08:00,8.9,10.1,13.9,2745,171.40
2002-03-10 09:00,9.5,11.1,13.9,2466,166.60
2002-03-10 10:00,9.4,,, 920,174.90
2002-03-10 11:00,10.4,9.9,12.5,2944,203.00
2002-03-10 12:00,9.6,9.7,15.7,2959,228.20
2002-03-10 13:00,7.1,7.7,10.8,2959,274.30
2002-03-10 14:00,6.5,9.0,13.1,2959,282.40
2002-03-10 15:00,5.9,10.2,16.3,2355,286.90
2002-03-10 16:00,5.3,10.1,13.9,2649,279.70
2002-03-10 17:00,5.1,11.5,15.1,2250,274.90
2002-03-10 18:00,4.8,9.4,13.1,2546,284.50
2002-03-10 19:00,4.6,10.4,15.5,2625,281.50
2002-03-10 20:00,4.5,10.5,15.3,2920,288.50
2002-03-10 21:00,3.6,12.4,17.2,2612,285.40
2002-03-10 22:00,3.4,12.2,17.6,2859,284.10
2002-03-10 23:00,2.2,13.7,18.8,2959,289.70
2002-03-11 00:00,1.4,14.4,21.2,2959,282.20
2002-03-11 01:00,0.9,12.5,18.8,2947,270.60
2002-03-11 02:00,0.2,14.7,19.8,2960,278.90
2002-03-11 03:00,-0.4,14.7,20.6,2960,273.30
2002-03-11 04:00,-0.6,13.2,17.8,2960,272.80
2002-03-11 05:00,-0.9,11.8,16.7,2960,268.50
2002-03-11 06:00,-1.1,12.3,17.2,2960,261.90
2002-03-11 07:00,-1.3,13.1,17.6,2960,276.10
2002-03-11 08:00,-1.2,11.9,16.5,2960,273.10
2002-03-11 09:00,-1.3,11.5,16.1,2870,268.30
2002-03-11 10:00,-1.7,11.0,15.3,2960,288.40
2002-03-11 11:00,-1.6,9.8,14.3,2960,280.20
2002-03-11 12:00,-1.9,8.6,12.0,2751,281.40
2002-03-11 13:00,-1.8,9.6,14.1,2960,298.10
2002-03-11 14:00,-1.3,8.9,12.7,1447,278.70
2002-03-11 15:00,-0.6,8.6,11.2,2911,285.10
2002-03-11 16:00,-0.0,7.8,12.0,2848,280.80
2002-03-11 17:00,0.5,6.9,10.0,2870,274.00
2002-03-11 18:00,1.3,7.1,9.8,2850,263.20
2002-03-11 19:00,2.2,7.9,11.0,2784,273.80
2002-03-11 20:00,2.9,7.9,11.8,2745,283.60
2002-03-11 21:00,3.5,6.7,9.0,2839,271.10
2002-03-11 22:00,3.4,7.0,9.6,2960,253.70
2002-03-11 23:00,3.4,6.1,8.2,2959,264.20
2002-03-12 00:00,3.2,7.2,10.0,2959,265.10
2002-03-12 01:00,2.8,7.2,10.0,2959,271.50
2002-03-12 02:00,2.5,6.8,9.0,2959,258.20
2002-03-12 03:00,2.6,7.6,10.2,2959,263.50
2002-03-12 04:00,2.6,7.0,9.2,2959,252.20
2002-03-12 05:00,2.4,6.9,9.0,2959,241.00
2002-03-12 06:00,2.6,7.0,9.4,2959,236.30
2002-03-12 07:00,2.7,6.7,8.8,2959,239.60
2002-03-12 08:00,2.5,7.4,9.6,2959,225.80
2002-03-12 09:00,2.5,7.4,9.8,2959,210.80
2002-03-12 10:00,3.0,8.8,11.4,2959,221.20
2002-03-12 11:00,3.4,7.7,9.8,2959,208.60
2002-03-12 12:00,3.7,7.6,9.8,2959,188.60
2002-03-12 13:00,3.8,8.8,11.8,2959,188.70
2002-03-12 14:00,4.0,8.0,11.0,2959,201.40
2002-03-12 15:00,4.1,8.5,11.2,2959,216.40
2002-03-12 16:00,4.3,7.7,10.2,2960,206.10
2002-03-12 17:00,4.8,6.1,8.0,2960,214.30
2002-03-12 18:00,5.3,4.8,6.3,2960,198.10
2002-03-12 19:00,5.7,4.8,6.1,2960,220.70
2002-03-12 20:00,6.2,7.6,9.8,2959,227.50
2002-03-12 21:00,6.0,5.0,6.7,2959,268.40
2002-03-12 22:00,5.7,4.2,5.7,2959,268.40
2002-03-12 23:00,5.6,2.1,3.1,2959,237.70
2002-03-13 00:00,5.4,2.2,3.1,2959,186.10
2002-03-13 01:00,5.3,1.0,1.6,2959,246.00
2002-03-13 02:00,5.1,1.4,2.0,2959,290.90
2002-03-13 03:00,4.9,1.0,1.4,2959,277.90
2002-03-13 04:00,4.7,1.2,1.8,2959,274.80
2002-03-13 05:00,4.6,1.3,2.0,2959,324.03
2002-03-13 06:00,4.3,1.6,2.0,2959,328.66
2002-03-13 07:00,4.1,1.6,2.2,2959,343.93
2002-03-13 08:00,4.0,1.4,2.0,2959,347.65
2002-03-13 09:00,4.1,2.5,2.9,2959,27.25
2002-03-13 10:00,4.1,2.2,2.9,2959,39.70
2002-03-13 11:00,4.3,2.8,3.5,2959,38.00
2002-03-13 12:00,4.6,3.0,3.7,2960,41.00
2002-03-13 13:00,5.1,3.0,3.9,2960,50.60
2002-03-13 14:00,5.3,2.4,3.1,2959,71.00
2002-03-13 15:00,5.3,3.4,4.3,2959,71.80
2002-03-13 16:00,5.1,3.3,4.3,2959,92.20
2002-03-13 17:00,5.2,3.7,4.5,2960,58.20
2002-03-13 18:00,5.1,4.1,5.5,2959,76.90
2002-03-13 19:00,5.0,4.5,5.9,2111,59.80
2002-03-13 20:00,5.0,4.0,6.1, 618,62.40
2002-03-13 21:00,5.0,4.3,5.3, 279,35.40
2002-03-13 22:00,5.0,4.8,6.1,1430,32.20
2002-03-13 23:00,5.1,4.9,6.1,1863,37.00
2002-03-14 00:00,5.1,5.0,6.9,1976,23.81
2002-03-14 01:00,5.1,5.5,7.2,1180,23.43
2002-03-14 02:00,5.0,5.5,7.4,1481,359.58
2002-03-14 03:00,5.0,4.5,6.1,1323,350.97
2002-03-14 04:00,4.8,4.3,5.5, 413,356.92
2002-03-14 05:00,4.8,5.4,7.1,2738,337.18
2002-03-14 06:00,4.5,5.1,6.9,2954,343.31
2002-03-14 07:00,4.6,4.7,6.1,2959,339.58
2002-03-14 08:00,4.8,4.1,5.3,2959,326.30
2002-03-14 09:00,4.9,2.2,3.1,2959,301.90
2002-03-14 10:00,4.9,4.9,6.3,2959,279.10
2002-03-14 11:00,4.8,5.2,6.9,2847,285.70
2002-03-14 12:00,5.2,4.8,6.1,2960,281.40
2002-03-14 13:00,5.9,3.4,4.3,2700,274.10
2002-03-14 14:00,6.5,4.9,6.1,2434,287.00
2002-03-14 15:00,8.5,7.6,10.2,2793,308.10
2002-03-14 16:00,8.9,5.9,8.2,2952,325.08
2002-03-14 17:00,9.2,3.5,5.5,2934,304.30
2002-03-14 18:00,9.5,3.0,5.5,2931,291.70
2002-03-14 19:00,9.8,3.1,5.9,2950,292.30
2002-03-14 20:00,10.8,6.2,8.2,1432,298.00
2002-03-14 21:00,10.9,1.5,2.5,2718,240.10
2002-03-14 22:00,9.0,2.2,3.1,2545,340.66
2002-03-14 23:00,7.4,2.9,3.5,2958,23.90
2002-03-15 00:00,9.0,2.7,3.3,2959,2.04
2002-03-15 01:00,7.9,3.9,4.7,2959,347.91
2002-03-15 02:00,7.9,1.5,2.2,2959,4.59
2002-03-15 03:00,7.3,0.8,1.4,2959,101.20
2002-03-15 04:00,6.5,1.2,1.6,2959,92.00
2002-03-15 05:00,6.1,2.0,2.5,2959,74.00
2002-03-15 06:00,6.0,2.2,2.9,2959,51.70
2002-03-15 07:00,6.0,2.9,3.7,2959,55.40
2002-03-15 08:00,6.0,4.2,5.5,2959,81.20
2002-03-15 09:00,5.9,4.7,6.1,2959,78.20
2002-03-15 10:00,5.7,8.0,11.4,2959,89.80
2002-03-15 11:00,5.3,8.5,11.8,2935,79.10
2002-03-15 12:00,5.2,10.5,14.5,2959,84.90
2002-03-15 13:00,4.8,10.0,12.9,2960,89.50
2002-03-15 14:00,5.1,9.9,13.7,2960,95.90
2002-03-15 15:00,5.4,8.3,11.2,2960,97.50
2002-03-15 16:00,5.6,7.6,10.2,2959,92.00
2002-03-15 17:00,5.8,6.2,8.4,2959,111.90
2002-03-15 18:00,5.8,5.8,8.2,2922,102.30
2002-03-15 19:00,5.9,6.9,9.6,2921,123.30
2002-03-15 20:00,6.7,6.8,9.0,2960,155.20
2002-03-15 21:00,6.4,2.5,3.7,2958,209.00
2002-03-15 22:00,5.8,1.5,2.5,2941,236.40
2002-03-15 23:00,5.7,0.4,1.4,2837,282.10
2002-03-16 00:00,5.6,5.2,7.2,2598,339.90
2002-03-16 01:00,4.5,6.4,8.4,1836,353.85
2002-03-16 02:00,4.1,6.0,8.4,1544,6.18
2002-03-16 03:00,3.4,7.9,10.8,1258,358.61
2002-03-16 04:00,2.9,5.9,7.6,1541,6.23
2002-03-16 05:00,2.6,3.6,5.3,1606,1.41
2002-03-16 06:00,2.8,2.3,4.1,1340,318.30
2002-03-16 07:00,2.9,1.5,2.4, 612,24.00
2002-03-16 08:00,2.7,2.5,3.5, 342,22.53
2002-03-16 09:00,2.8,2.9,4.1, 278,8.77
2002-03-16 15:00,3.9,6.7,9.0,2916,12.15
2002-03-16 16:00,4.1,8.2,10.8,2959,353.47
2002-03-16 17:00,4.2,7.8,10.4,2959,352.39
2002-03-16 18:00,4.1,9.0,11.4,2959,352.83
2002-03-16 19:00,4.4,7.5,9.8,2959,351.03
2002-03-16 20:00,4.5,6.6,8.6,2959,13.53
2002-03-16 21:00,4.1,6.5,8.6,2959,26.28
2002-03-16 22:00,3.9,7.2,9.0,2959,35.30
2002-03-16 23:00,3.8,8.2,10.6,2897,22.41
2002-03-17 00:00,3.6,9.9,13.1,2959,9.02
2002-03-17 01:00,2.9,11.8,15.3,2959,15.21
2002-03-17 02:00,2.4,11.3,14.5,2959,11.07
2002-03-17 03:00,1.6,11.3,14.5,2959,12.98
2002-03-17 04:00,1.2,11.1,14.5,2959,17.87
2002-03-17 05:00,0.7,10.3,13.9,2959,9.21
2002-03-17 06:00,0.4,10.0,13.5,2959,9.60
2002-03-17 07:00,0.2,9.6,12.9,2959,11.90
2002-03-17 08:00,0.3,8.8,12.0,2960,19.49
2002-03-17 09:00,0.2,8.2,11.4,2960,18.25
2002-03-17 10:00,0.2,8.5,11.2,2960,15.43
2002-03-17 11:00,0.3,8.1,12.0,2960,25.34
2002-03-17 12:00,0.5,7.3,11.4,2960,14.58
2002-03-17 13:00,0.5,6.4,9.2,2960,16.52
2002-03-17 14:00,0.5,6.5,9.2,2960,8.40
2002-03-17 15:00,0.4,5.9,9.0,2960,12.28
2002-03-17 16:00,0.6,4.2,7.1,2959,17.88
2002-03-17 17:00,0.7,3.0,4.7,2960,27.28
2002-03-17 18:00,0.8,2.9,4.5,2960,34.80
2002-03-17 19:00,1.1,2.0,3.1,2960,87.20
2002-03-17 20:00,1.2,3.3,4.9,2960,101.50
2002-03-17 21:00,1.4,3.1,4.5,2960,141.70
2002-03-17 22:00,1.6,4.0,5.3,2959,159.40
2002-03-17 23:00,2.0,5.0,6.7,2959,165.80
2002-03-18 00:00,2.1,4.6,6.1,2959,144.30
2002-03-18 01:00,2.3,4.1,5.3,2959,131.80
2002-03-18 02:00,2.6,3.5,4.7,2959,150.20
2002-03-18 03:00,2.8,2.8,4.1,2959,167.40
2002-03-18 04:00,2.8,2.6,3.9,2959,173.40
2002-03-18 05:00,2.8,2.2,3.7,2959,114.60
2002-03-18 06:00,3.1,2.9,4.3,2959,70.70
2002-03-18 07:00,3.3,3.7,4.9,2959,83.20
2002-03-18 08:00,3.3,4.0,6.1,2959,87.70
2002-03-18 09:00,3.2,3.9,5.5,2959,81.10
2002-03-18 10:00,3.2,4.2,7.2,2959,116.60
2002-03-18 11:00,3.1,4.9,6.5,2959,94.10
2002-03-18 12:00,3.2,4.8,6.9,2959,101.90
2002-03-18 13:00,3.2,6.4,8.4,2959,85.60
2002-03-18 14:00,3.1,6.6,9.0,2960,83.30
2002-03-18 15:00,2.6,8.4,10.4,2960,78.10
2002-03-18 16:00,2.4,8.0,10.6,2938,83.70
2002-03-18 17:00,2.3,8.8,11.4,2960,88.30
2002-03-18 18:00,2.3,8.1,10.6,2960,91.10
2002-03-18 19:00,2.4,8.6,11.6,2960,81.20
2002-03-18 20:00,2.3,8.3,11.0,2832,88.10
2002-03-18 21:00,1.6,7.3,10.2,2054,91.30
2002-03-18 22:00,0.5,6.6,9.2,1423,84.20
2002-03-18 23:00,0.7,7.6,10.4,1217,85.50
2002-03-19 00:00,1.0,7.9,10.4,2399,87.30
2002-03-19 01:00,1.1,7.5,9.6,1864,76.00
2002-03-19 02:00,1.2,8.3,11.2,2321,90.60
2002-03-19 03:00,1.4,7.3,9.6,2849,89.30
2002-03-19 04:00,1.2,7.2,9.4,2177,76.90
2002-03-19 05:00,1.5,7.2,9.8,2912,88.40
2002-03-19 06:00,1.7,6.9,9.0,2653,84.40
2002-03-19 07:00,1.7,6.4,8.8,2911,82.80
2002-03-19 08:00,1.8,6.4,8.2,2945,79.50
2002-03-19 09:00,1.9,5.5,7.4,2959,90.50
2002-03-19 10:00,1.8,5.3,7.8,2959,89.90
2002-03-19 11:00,2.0,6.1,7.8,2959,84.00
2002-03-19 12:00,2.1,4.9,6.9,2959,83.50
2002-03-19 13:00,2.4,5.5,7.1,2959,76.90
2002-03-19 14:00,2.5,5.4,7.2,2960,76.80
2002-03-19 15:00,2.5,5.1,6.7,2960,63.10
2002-03-19 16:00,2.7,5.5,7.6,2960,71.80
2002-03-19 17:00,2.5,5.1,6.5,2960,59.80
2002-03-19 18:00,2.6,4.9,6.3,2960,55.00
2002-03-19 19:00,2.5,4.8,6.3,2960,52.20
2002-03-19 20:00,2.5,4.7,6.5,2960,37.60
2002-03-19 21:00,2.1,4.0,5.1,2960,26.83
2002-03-19 22:00,2.7,4.3,6.1,2959,29.70
2002-03-19 23:00,2.9,3.5,5.9,2959,27.55
2002-03-20 00:00,2.9,4.5,5.9,2959,33.90
2002-03-20 01:00,3.0,4.2,5.5,2959,58.30
2002-03-20 02:00,3.1,3.8,4.9,2959,63.40
2002-03-20 03:00,2.9,3.9,5.5,2959,79.40
2002-03-20 04:00,3.1,2.3,3.7,2959,84.20
2002-03-20 05:00,3.1,3.1,4.7,2959,75.70
2002-03-20 06:00,2.8,4.5,5.7,2959,85.40
2002-03-20 07:00,3.0,4.0,5.7,2959,104.00
2002-03-20 08:00,3.1,4.1,5.7,2959,100.10
2002-03-20 09:00,3.2,4.6,6.5,2959,106.80
2002-03-20 10:00,3.2,6.9,9.4,2959,106.90
2002-03-20 11:00,3.1,7.4,9.6,2959,113.10
2002-03-20 12:00,3.1,7.4,9.6,2959,118.00
2002-03-20 13:00,3.1,7.2,10.0,2960,125.60
2002-03-20 14:00,3.2,6.7,9.0,2960,130.80
2002-03-20 15:00,3.3,6.6,9.0,2960,148.80
2002-03-20 16:00,3.5,6.6,9.2,2960,130.90
2002-03-20 17:00,3.6,7.2,10.0,2960,137.30
2002-03-20 18:00,3.6,9.0,11.2,2960,145.80
2002-03-20 19:00,3.8,9.0,11.6,2960,152.60
2002-03-20 20:00,2.8,10.2,13.3,2224,141.50
2002-03-20 21:00,2.1,9.8,12.7,1254,137.10
2002-03-20 22:00,2.2,11.8,15.3,1031,125.90
2002-03-20 23:00,1.8,11.2,14.3,1231,111.00
2002-03-21 00:00,2.7,11.4,15.1,1310,114.00
2002-03-21 01:00,3.6,11.1,15.7,1033,104.00
2002-03-21 02:00,4.3,10.1,13.9,1551,73.00
2002-03-21 03:00,4.6,7.1,11.2,1242,62.70
2002-03-21 04:00,4.7,7.0,9.4,1705,17.53
2002-03-21 05:00,3.0,12.8,17.4,1543,0.01
2002-03-21 06:00,2.3,14.4,19.4,2756,347.76
2002-03-21 07:00,2.2,11.7,16.7,2951,336.58
2002-03-21 08:00,2.5,11.7,15.3,2959,334.99
2002-03-21 09:00,2.1,9.9,14.5,2959,324.12
2002-03-21 10:00,2.4,8.7,12.4,2959,327.87
2002-03-21 11:00,2.4,6.6,9.2,2886,328.30
2002-03-21 12:00,2.9,6.4,9.2,2841,341.13
2002-03-21 13:00,3.2,5.9,8.8,2774,331.90
2002-03-21 14:00,3.3,5.3,8.2,2895,323.39
2002-03-21 15:00,3.7,2.5,5.1,2950,312.60
2002-03-21 16:00,4.0,1.8,3.5,2960,294.50
2002-03-21 17:00,4.9,0.3,1.2,2959,158.10
2002-03-21 18:00,4.2,2.2,3.9,2959,150.80
2002-03-21 19:00,4.2,4.4,5.7,2959,153.80
2002-03-21 20:00,4.3,5.7,7.4,2959,147.10
2002-03-21 21:00,4.4,8.3,10.8,2959,145.20
2002-03-21 22:00,4.6,8.2,11.4,2960,140.80
2002-03-21 23:00,5.3,10.4,13.7,2959,167.80
2002-03-22 00:00,5.1,10.9,14.9,2959,179.10
2002-03-22 01:00,4.6,9.7,12.4,2959,185.80
2002-03-22 02:00,4.5,8.6,11.6,2959,196.90
2002-03-22 03:00,4.5,11.0,14.3,2935,210.00
2002-03-22 04:00,5.1,10.7,15.7,2959,240.80
2002-03-22 05:00,4.2,10.5,14.9,2959,295.00
2002-03-22 06:00,2.3,11.7,15.9,2925,285.50
2002-03-22 07:00,-0.8,11.7,14.7,1877,307.00
2002-03-22 08:00,-1.5,12.8,17.4,2959,299.40
2002-03-22 09:00,-3.5,13.2,17.0,2960,320.06
2002-03-22 10:00,-4.4,13.9,18.4,2960,299.50
2002-03-22 11:00,-5.6,12.3,16.9,2960,291.40
2002-03-22 12:00,-6.4,12.4,16.9,2961,290.30
2002-03-22 13:00,-6.8,13.2,17.6,2961,299.80
2002-03-22 14:00,-6.8,12.6,17.2,2961,303.20
2002-03-22 15:00,-6.1,11.9,16.9,2961,279.80
2002-03-22 16:00,-5.5,10.6,14.3,2961,286.50
2002-03-22 17:00,-5.0,12.2,16.5,2857,291.90
2002-03-22 18:00,-4.1,11.4,16.3,2801,303.90
2002-03-22 19:00,-3.3,11.2,15.1,1201,299.30
2002-03-22 20:00,-2.5,11.9,16.1,2810,285.20
2002-03-22 21:00,-1.8,11.1,16.7,2906,286.90
2002-03-22 22:00,-1.6,10.3,15.3,2942,283.80
2002-03-22 23:00,-1.8,12.3,16.1,2960,281.10
2002-03-23 00:00,-1.8,10.2,13.3,2960,268.00
2002-03-23 01:00,-1.7,10.0,14.3,2960,270.50
2002-03-23 02:00,-1.9,12.5,16.1,2960,267.10
2002-03-23 03:00,-1.9,11.9,15.9,2960,259.80
2002-03-23 04:00,-1.4,12.5,17.2,2960,258.00
2002-03-23 05:00,-1.7,11.4,16.9,2960,261.60
2002-03-23 06:00,-2.2,12.1,16.7,2960,264.40
2002-03-23 07:00,-2.4,11.6,16.7,2960,262.50
2002-03-23 08:00,-2.5,11.1,14.5,2960,265.40
2002-03-23 09:00,-2.5,11.4,16.3,2960,259.50
2002-03-23 10:00,-2.4,11.5,15.1,2960,256.30
2002-03-23 11:00,-2.4,11.3,15.3,2960,251.90
2002-03-23 12:00,-2.4,11.8,16.3,2961,240.90
2002-03-23 13:00,-1.9,11.9,15.9,2961,244.10
2002-03-23 14:00,-1.2,11.4,16.3,2949,246.20
2002-03-23 15:00,-0.4,11.5,15.3,2833,239.70
2002-03-23 16:00,0.5,11.5,14.9,2646,246.00
2002-03-23 17:00,1.3,11.4,15.3,2033,243.20
2002-03-23 18:00,2.2,11.0,14.3,2064,244.40
2002-03-23 19:00,3.0,10.0,15.1,2961,240.00
2002-03-23 20:00,3.8,10.1,13.5,2960,243.70
2002-03-23 21:00,4.4,9.6,12.7,2960,236.50
2002-03-23 22:00,4.7,9.1,12.7,2960,236.00
2002-03-23 23:00,4.8,9.4,12.1,2959,224.00
2002-03-24 00:00,4.1,11.3,14.3,2959,206.30
2002-03-24 01:00,4.2,11.4,14.9,2844,207.60
2002-03-24 02:00,4.6,11.5,15.5,2959,221.60
2002-03-24 03:00,4.6,10.0,14.5,2959,249.30
2002-03-24 04:00,4.5,8.5,11.0,2959,230.40
2002-03-24 05:00,4.5,8.7,11.4,2959,226.80
2002-03-24 06:00,4.5,7.6,10.4,2959,240.60
2002-03-24 07:00,3.4,7.7,10.6,2959,302.50
2002-03-24 08:00,3.1,6.7,8.6,2959,268.90
2002-03-24 09:00,3.3,8.3,11.2,2959,257.80
2002-03-24 10:00,3.1,10.6,13.3,2959,269.50
2002-03-24 11:00,3.0,11.0,15.3,2960,272.70
2002-03-24 12:00,2.8,11.4,15.3,2960,268.30
2002-03-24 13:00,2.7,12.1,15.7,2960,272.00
2002-03-24 14:00,2.9,9.6,12.7,2958,272.00
2002-03-24 15:00,3.2,9.5,12.5,2889,279.10
2002-03-24 16:00,3.7,7.7,10.4,2406,271.00
2002-03-24 17:00,4.4,7.2,9.4,2357,273.80
2002-03-24 18:00,5.3,9.6,13.1,1645,260.60
2002-03-24 19:00,5.8,10.4,14.9,2599,268.80
2002-03-24 20:00,6.3,7.9,11.2,2959,278.90
2002-03-24 21:00,6.4,5.7,8.4,2960,284.20
2002-03-24 22:00,6.3,5.5,7.4,2959,306.40
2002-03-24 23:00,5.8,3.8,5.5,2959,326.19
2002-03-25 00:00,5.4,1.2,1.8,2959,64.90
2002-03-25 01:00,5.2,1.8,2.5,2959,81.00
2002-03-25 02:00,5.0,4.0,4.9,2959,20.89
2002-03-25 03:00,4.8,4.8,5.9,2959,21.31
2002-03-25 04:00,3.5,8.6,11.2,2959,29.60
2002-03-25 05:00,3.0,8.3,11.2,2959,33.60
2002-03-25 06:00,1.5,9.6,13.5,2959,26.54
2002-03-25 07:00,0.8,7.7,10.4,2876,23.61
2002-03-25 08:00,0.0,6.8,9.2,1904,24.18
2002-03-25 09:00,0.1,4.6,7.2,2959,18.08
2002-03-25 10:00,0.3,3.4,4.9,2960,357.90
2002-03-25 11:00,0.4,1.4,2.9,2960,333.70
2002-03-25 12:00,0.6,4.2,6.5,2960,342.48
2002-03-25 13:00,0.8,5.9,9.0,2960,343.34
2002-03-25 14:00,0.8,7.2,9.6,2960,355.78
2002-03-25 15:00,0.8,5.8,7.4,2902,359.45
2002-03-25 16:00,1.4,4.9,6.9,2960,357.54
2002-03-25 17:00,1.7,5.3,7.2,2960,19.59
2002-03-25 18:00,2.0,5.3,7.4,2960,17.55
2002-03-25 19:00,2.2,4.3,5.9,2960,40.20
2002-03-25 20:00,2.4,2.9,5.5,2960,73.90
2002-03-25 21:00,2.4,2.4,3.9,2960,74.70
2002-03-25 22:00,2.5,2.3,3.3,2959,88.80
2002-03-25 23:00,2.6,2.5,3.7,2959,134.90
2002-03-26 00:00,2.9,3.4,4.3,2959,161.50
2002-03-26 01:00,2.8,3.2,4.1,2959,162.40
2002-03-26 02:00,2.9,1.8,2.4,2959,202.40
2002-03-26 03:00,3.0,3.4,4.3,2959,143.00
2002-03-26 04:00,3.2,2.3,3.1,2959,184.90
2002-03-26 05:00,3.3,2.2,3.1,2959,193.90
2002-03-26 06:00,3.3,0.9,1.6,2959,196.50
2002-03-26 07:00,3.3,0.6,1.0,2959,63.30
2002-03-26 08:00,3.4,2.5,3.3,2959,48.00
2002-03-26 09:00,3.7,3.2,4.5,2959,56.90
2002-03-26 10:00,3.8,5.6,7.4,2959,64.00
2002-03-26 11:00,3.8,5.3,7.4,2959,68.90
2002-03-26 12:00,3.9,6.5,9.0,2959,77.70
2002-03-26 13:00,3.9,7.0,9.4,2959,85.10
2002-03-26 14:00,3.8,7.3,9.6,2960,83.30
2002-03-26 15:00,3.9,6.9,9.2,2960,89.30
2002-03-26 16:00,3.9,7.6,10.0,2959,96.50
2002-03-26 17:00,3.5,7.4,9.4,2934,99.30
2002-03-26 18:00,3.4,7.9,10.2,2959,82.20
2002-03-26 19:00,3.5,8.9,11.8,2959,81.30
2002-03-26 20:00,3.3,10.6,14.3,2959,77.80
2002-03-26 21:00,3.2,9.8,13.1,2959,80.40
2002-03-26 22:00,3.5,10.8,13.7,2915,93.60
2002-03-26 23:00,3.7,10.2,14.3,2959,84.30
2002-03-27 00:00,4.1,10.3,13.9,2877,97.40
2002-03-27 01:00,4.7,9.2,12.5,2943,100.70
2002-03-27 02:00,5.4,6.3,9.0,2939,109.30
2002-03-27 03:00,5.6,4.4,6.7,2954,101.50
2002-03-27 04:00,6.5,5.1,7.6,2790,148.80
2002-03-27 05:00,6.8,5.7,8.4,2379,174.80
2002-03-27 06:00,6.1,2.0,4.9,2802,262.70
2002-03-27 07:00,5.8,0.9,3.9,2959,27.28
2002-03-27 08:00,4.4,6.6,9.8,2959,340.92
2002-03-27 09:00,3.7,4.2,6.1,2959,16.96
2002-03-27 10:00,4.2,3.6,5.7,2959,81.80
2002-03-27 11:00,4.6,2.4,4.3,2959,96.90
2002-03-27 12:00,5.9,5.8,7.4,2959,131.70
2002-03-27 13:00,5.0,5.0,8.0,2959,319.41
2002-03-27 14:00,3.1,8.5,11.6,2958,324.71
2002-03-27 15:00,3.0,3.1,5.1,2959,6.48
2002-03-27 16:00,3.4,3.2,4.9,2959,356.24
2002-03-27 17:00,3.5,2.3,3.5,2959,357.24
2002-03-27 18:00,3.8,0.3,1.0,2959,324.98
2002-03-27 19:00,4.1,1.8,3.3,2959,301.20
2002-03-27 20:00,4.6,1.1,2.7,2959,283.20
2002-03-27 21:00,5.5,0.2,1.0,2959,225.90
2002-03-27 22:00,5.8,1.1,2.5,2959,268.90
2002-03-27 23:00,6.8,4.3,6.9,2959,321.79
2002-03-28 00:00,7.0,6.9,10.6,2959,323.45
2002-03-28 01:00,6.3,5.7,8.4,2959,312.70
2002-03-28 02:00,5.8,6.6,9.4,2959,316.60
2002-03-28 03:00,5.3,6.8,9.4,2959,321.22
2002-03-28 04:00,4.8,8.8,12.0,2959,324.11
2002-03-28 05:00,3.9,8.5,11.4,2959,324.48
2002-03-28 06:00,3.4,8.8,12.0,2959,316.30
2002-03-28 07:00,3.0,8.9,11.8,2959,316.90
2002-03-28 08:00,2.9,6.6,8.6,2959,313.80
2002-03-28 09:00,2.9,6.9,9.2,2959,320.00
2002-03-28 10:00,3.0,6.0,8.4,2959,318.70
2002-03-28 11:00,2.6,6.6,10.0,2959,315.70
2002-03-28 12:00,2.6,5.9,8.2,2959,313.50
2002-03-28 13:00,2.9,5.7,8.0,2960,310.10
2002-03-28 14:00,3.9,5.8,7.8,2960,322.41
2002-03-28 15:00,4.5,5.8,8.4,2930,333.15
2002-03-28 16:00,5.1,5.2,7.8,2960,337.46
2002-03-28 17:00,5.6,0.7,2.2,2868,168.30
2002-03-28 18:00,5.3,3.6,4.7,1708,157.90
2002-03-28 19:00,5.3,5.7,6.9,2959,177.00
2002-03-28 20:00,5.2,5.2,6.7,2959,148.40
2002-03-28 21:00,5.5,3.7,5.1,2959,138.50
2002-03-28 22:00,5.2,5.3,7.6,2959,154.90
2002-03-28 23:00,5.2,4.4,6.1,2959,148.90
2002-03-29 00:00,5.5,4.1,5.7,2959,169.40
2002-03-29 01:00,5.4,3.8,5.9,2959,156.10
2002-03-29 02:00,5.1,2.6,3.9,2959,173.90
2002-03-29 03:00,5.8,3.0,4.7,2959,260.90
2002-03-29 04:00,6.1,5.2,6.7,2959,300.90
2002-03-29 05:00,6.0,5.4,7.2,2959,306.20
2002-03-29 06:00,5.2,4.6,6.5,2959,313.60
2002-03-29 07:00,4.8,5.0,6.7,2959,326.01
2002-03-29 08:00,4.2,3.1,4.5,2959,350.84
2002-03-29 09:00,4.3,1.1,1.6,2959,11.17
2002-03-29 10:00,3.9,0.5,0.8,2959,318.00
2002-03-29 11:00,4.1,1.5,2.2,2959,273.20
2002-03-29 12:00,5.4,1.3,2.0,2960,195.70
2002-03-29 13:00,5.4,1.1,1.8,2960,195.40
2002-03-29 14:00,4.9,1.9,2.5,2960,154.00
2002-03-29 15:00,5.3,2.9,3.7,2960,158.10
2002-03-29 16:00,5.3,4.0,5.1,2959,150.30
2002-03-29 17:00,5.4,5.6,7.1,2959,134.10
2002-03-29 18:00,5.7,6.3,8.4,2959,131.80
2002-03-29 19:00,6.1,6.1,7.8,2959,131.80
2002-03-29 20:00,6.8,5.8,8.0,2959,155.80
2002-03-29 21:00,7.3,7.1,9.2,2959,180.70
2002-03-29 22:00,7.9,7.2,9.0,2959,189.70
2002-03-29 23:00,7.4,7.0,9.2,2959,184.80
2002-03-30 00:00,7.4,7.7,12.1,2959,190.90
2002-03-30 01:00,6.3,5.8,8.0,2959,170.70
2002-03-30 02:00,6.1,7.4,9.4,2959,172.40
2002-03-30 03:00,5.7,6.5,8.2,2959,179.10
2002-03-30 04:00,5.6,6.8,8.8,2959,170.40
2002-03-30 05:00,5.3,5.7,7.4,2959,157.00
2002-03-30 06:00,5.6,7.3,9.6,2959,162.10
2002-03-30 07:00,5.7,8.3,11.0,2959,156.10
2002-03-30 08:00,5.8,8.4,11.4,2959,146.40
2002-03-30 09:00,6.4,9.9,13.1,2959,166.70
2002-03-30 10:00,6.4,9.5,13.1,2959,159.00
2002-03-30 11:00,7.1,11.4,13.9,2959,156.70
2002-03-30 12:00,7.0,12.6,16.1,2959,161.00
2002-03-30 13:00,7.8,10.7,14.3,2959,182.90
2002-03-30 14:00,8.2,9.0,11.6,2959,183.10
2002-03-30 15:00,8.2,7.6,10.4,2959,193.50
2002-03-30 16:00,8.1,6.4,8.2,2959,207.70
2002-03-30 17:00,8.1,6.2,8.4,2959,189.80
2002-03-30 18:00,7.8,4.8,6.7,2959,175.40
2002-03-30 19:00,7.2,3.9,5.3,2959,184.80
2002-03-30 20:00,7.8,1.6,2.9,2959,134.20
2002-03-30 21:00,6.9,0.7,1.8,2959,121.80
2002-03-30 22:00,6.8,1.2,2.4,2959,125.00
2002-03-30 23:00,7.0,1.0,2.4,2959,261.50
2002-03-31 00:00,7.4,1.4,3.3,2959,242.30
2002-03-31 01:00,8.0,0.7,1.8,2959,214.00
2002-03-31 02:00,7.5,0.2,1.0,2959,76.80
2002-03-31 03:00,7.7,0.1,0.8,2959,167.50
2002-03-31 04:00,9.6,1.2,2.2,2959,267.90
2002-03-31 05:00,7.1,1.5,2.4,2959,229.80
2002-03-31 06:00,6.2,2.0,2.9,2959,279.90
2002-03-31 07:00,6.2,1.5,2.4,2959,288.90
2002-03-31 08:00,6.5,1.0,2.2,2959,256.10
2002-03-31 09:00,7.7,0.6,1.0,2959,200.10
2002-03-31 10:00,6.7,1.9,2.7,2959,241.90
2002-03-31 11:00,6.3,1.8,2.9,2959,242.00
2002-03-31 12:00,6.1,1.9,2.7,2959,176.10
2002-03-31 13:00,6.2,0.6,1.4,2959,158.40
2002-03-31 14:00,6.1,2.6,4.3,2959,137.30
2002-03-31 15:00,6.7,0.5,1.6,2959,263.10
2002-03-31 16:00,6.6,2.9,3.9,2959,343.90
2002-03-31 17:00,9.3,0.8,2.0,2959,323.92
2002-03-31 18:00,8.1,2.1,2.7,2959,77.20
2002-03-31 19:00,7.4,2.6,3.3,2959,71.60
2002-03-31 20:00,6.9,2.3,3.3,2959,78.50
2002-03-31 21:00,6.6,4.6,5.9,2959,87.80
2002-03-31 22:00,6.5,3.1,3.7,2959,115.70
2002-03-31 23:00,6.4,2.8,3.7,2959,100.50
2002-04-01 00:00,6.3,3.0,3.7,2959,118.80
2002-04-01 01:00,6.4,3.7,4.7,2959,125.80
2002-04-01 02:00,6.5,2.9,3.7,2959,118.10
2002-04-01 03:00,6.4,2.8,3.7,2959,108.90
2002-04-01 04:00,6.5,6.3,8.2,2959,130.70
2002-04-01 05:00,5.9,2.6,3.7,2959,116.70
2002-04-01 06:00,6.0,6.5,8.6,2959,107.10
2002-04-01 07:00,5.8,6.9,9.4,2959,111.90
2002-04-01 08:00,6.0,5.4,7.1,2954,103.10
2002-04-01 09:00,5.9,4.5,6.1,2957,40.20
2002-04-01 10:00,5.3,9.6,12.7,2916,351.08
2002-04-01 11:00,5.2,9.7,13.1,2959,24.56
2002-04-01 12:00,5.2,9.7,12.7,2959,34.70
2002-04-01 13:00,5.3,8.3,10.8,2959,41.00
2002-04-01 14:00,5.3,2.8,4.1,2959,343.63
2002-04-01 15:00,5.4,4.7,7.1,2959,275.40
2002-04-01 16:00,5.6,6.0,8.8,2959,279.10